Hourly Data Report for September 08, 2016

All times are specified in Local Standard Time (LST). Add 1 hour to adjust for Daylight Saving Time where and when it is observed.

CORAL HARBOUR A
NUNAVUT

64°11'36.000" N
83°21'34.000" W
62.20 m
2301002
71915
YZS

Download Data

Hourly Data (September 2016)
Hourly Data Report for September 8, 2016
Temp Definition
°C
Dew Point Temp Definition
°C
Rel Hum Definition
%
Wind Dir Definition
10's deg

Wind Spd Definition
km/h
Visibility Definition
km
Stn Press Definition
kPa
Hmdx Definition


Wind Chill Definition


Weather Definition


TIME
00:00 Legend Double Dagger 5.1 4.2 94 6 9 24.1 100.78     LegendNANA
01:00 Legend Double Dagger 5.3 4.6 95 10 8 24.1 100.81     Cloudy
02:00 Legend Double Dagger 5.5 4.8 95 9 7 24.1 100.85     LegendNANA
03:00 Legend Double Dagger 5.7 5.3 97 9 12 4.8 100.86     Rain,Fog
04:00 Legend Double Dagger 5.4 5.1 98 10 18 19.3 100.85     Rain
05:00 Legend Double Dagger 4.8 4.5 98 10 22 19.3 100.86     Rain
06:00 Legend Double Dagger 4.4 4.1 98 10 17 19.3 100.93     Drizzle
07:00 Legend Double Dagger 4.8 4.7 99 12 17 0.6 100.89     Rain Showers,Fog
08:00 Legend Double Dagger 5.6 5.5 99 19 14 0.2 100.89     Fog
09:00 Legend Double Dagger 5.8 5.7 99 16 8 0.4 100.90     Fog
10:00 Legend Double Dagger 5.9 5.8 99 19 11 0.6 100.88     Fog
11:00 Legend Double Dagger 6.0 5.4 96 19 13 3.2 100.87     Drizzle,Fog
12:00 Legend Double Dagger 6.2 5.8 97 17 9 3.2 100.86     Drizzle,Fog
13:00 Legend Double Dagger 6.0 5.6 97 19 20 1.2 100.88     Drizzle,Fog
14:00 Legend Double Dagger 6.1 5.8 98 19 21 0.4 100.86     Drizzle,Fog
15:00 Legend Double Dagger 6.3 6.0 98 18 16 9.7 100.86     Drizzle,Fog
16:00 Legend Double Dagger 6.2 5.8 97 19 19 19.3 100.87     Drizzle
17:00 Legend Double Dagger 5.7 5.3 97 19 20 19.3 100.86     Drizzle
18:00 Legend Double Dagger 5.4 5.3 99 19 18 0.4 100.88     Fog
19:00 Legend Double Dagger 5.4 5.3 99 19 14 0.4 100.87     Fog
20:00 Legend Double Dagger 5.4 5.3 99 17 10 19.3 100.86     LegendNANA
21:00 Legend Double Dagger 5.9 5.3 96 22 18 24.1 100.84     LegendNANA
22:00 Legend Double Dagger 5.2 4.9 98 23 21 3.2 100.84     Drizzle,Fog
23:00 Legend Double Dagger 5.4 5.3 99 23 13 3.2 100.82     Drizzle,Fog

Notes on Data Quality.

Legend

  • E = Estimated
  • M = Missing
  • NA = Not Available
  • ‡ = Partner data that is not subject to review by the National Climate Archives
Date modified: